Flag for U.S.A. Weather past 2 weeks in Des Moines, Iowa, U.S.A.

Now
60 °F

Passing clouds.


Feels Like: 60 °F
Forecast: 55 / 74 °F
Wind: No wind

Location: Des Moines International Airport

Current Time: May 23, 2015 at 2:43:22 AM

Latest Report: May 23, 2015 at 1:54 AM


Visibility: 10 mi

Pressure: 30.21 "Hg

Humidity: 65%

Dew point: 48 °F

Location of Des MoinesLocation

Historic Weather in Des Moines — Graph

°F

Des Moines temperature yesterday

Maximum temperature yesterday: 77 °F (at 2:54 PM)
Minimum temperature yesterday: 51 °F (at 5:54 AM)
Average temperature yesterday: 64 °F

Past Weeks' High & Low Weather Summary

 TemperatureHumidityPressure
High80 °F (May 16, 12:54 PM)97% (May 15, 7:54 AM)30.39 "Hg (May 15, 7:54 AM)
Low39 °F (May 19, 5:54 AM)23% (May 21, 4:54 PM)29.62 "Hg (May 17, 4:54 AM)
Average60 °F66%30.05 "Hg
* Reported May 8 12:54 AM — May 23 12:54 AM, Des Moines, Weather by CustomWeather, © 2015

Note: Actual official high and low records may vary slightly from our data, if they occured in-between our weather recording intervals... More about our weather records

Advertising

Des Moines weather history for previous 24 hours

 ConditionsComfort  
Time TempWeatherWind HumidityBarometerVisibility
12:54 AM
Sat, May 23
59 °FPassing clouds.5 mph69%30.21 "Hg10 mi
11:54 PM
Fri, May 22
61 °FPassing clouds.3 mph62%30.20 "Hg10 mi
10:54 PM64 °FPassing clouds.No wind52%30.21 "Hg10 mi
9:54 PM64 °FMostly cloudy.3 mph54%30.21 "Hg10 mi
8:54 PM65 °FMostly cloudy.7 mph49%30.20 "Hg10 mi
7:54 PM68 °FMostly cloudy.14 mph42%30.20 "Hg10 mi
6:54 PM71 °FMore clouds than sun.13 mph41%30.18 "Hg10 mi
5:54 PM74 °FBroken clouds.6 mph28%30.19 "Hg10 mi
4:54 PM75 °FMostly cloudy.6 mph27%30.18 "Hg10 mi
3:54 PM74 °FMore clouds than sun.3 mph25%30.19 "Hg10 mi
2:54 PM77 °FMostly cloudy.5 mph24%30.20 "Hg10 mi
1:54 PM75 °FMore clouds than sun.3 mph25%30.20 "Hg10 mi
12:54 PM74 °FOvercast.3 mph26%30.21 "Hg10 mi
11:54 AM74 °FOvercast.6 mph31%30.22 "Hg10 mi
10:54 AM70 °FOvercast.No wind37%30.21 "Hg10 mi
9:54 AM67 °FHigh level clouds.5 mph42%30.21 "Hg10 mi
8:54 AM62 °FOvercast.5 mph54%30.20 "Hg10 mi
7:54 AM57 °FPartly sunny.3 mph62%30.19 "Hg10 mi
6:54 AM53 °FScattered clouds.5 mph66%30.18 "Hg10 mi
5:54 AM51 °FPassing clouds.6 mph69%30.17 "Hg10 mi
4:54 AM52 °FClear.6 mph66%30.16 "Hg10 mi
3:54 AM53 °FClear.6 mph66%30.16 "Hg10 mi
2:54 AM54 °FClear.9 mph64%30.15 "Hg10 mi
Weather by CustomWeather, © 2015

See weather overviewHow to use our weather pages